| time (UTC) | temp F | wind direction | speed MPH | gust MPH | rain 1hr in | rain 24hr in | rain mn in | humidity % | barometer mb |
| 20260505024554 | 70 | 360 | 5.0 | 12.0 | 0.00 | 0.00 | 0.00 | 56 | 1009.7 |
| 20260505024522 | 70 | 360 | 5.0 | 12.0 | 0.00 | 0.00 | 0.00 | 67 | 1009.6 |
| 20260505023114 | 70 | 360 | 5.0 | 11.0 | 0.00 | 0.00 | 0.00 | 56 | 1009.5 |
| 20260505023024 | 70 | 360 | 5.0 | 10.0 | 0.00 | 0.00 | 0.00 | 67 | 1009.4 |
| 20260505021558 | 70 | 360 | 5.0 | 10.0 | 0.00 | 0.00 | 0.00 | 55 | 1009.3 |
| 20260505021527 | 70 | 360 | 5.0 | 10.0 | 0.00 | 0.00 | 0.00 | 67 | 1009.0 |
| 20260505020056 | 70 | 181 | 4.0 | 8.0 | 0.00 | 0.00 | 0.00 | 55 | 1009.1 |
| 20260505020021 | 70 | 198 | 5.0 | 7.0 | 0.00 | 0.00 | 0.00 | 66 | 1008.9 |
| 20260505014605 | 71 | 169 | 4.0 | 11.0 | 0.00 | 0.00 | 0.00 | 53 | 1008.8 |
| 20260505014520 | 71 | 163 | 4.0 | 10.0 | 0.00 | 0.00 | 0.00 | 65 | 1008.8 |
| 20260505013108 | 72 | 178 | 5.0 | 10.0 | 0.00 | 0.00 | 0.00 | 53 | 1008.7 |
| 20260505013019 | 72 | 184 | 6.0 | 10.0 | 0.00 | 0.00 | 0.00 | 64 | 1008.6 |
| 20260505011557 | 72 | 162 | 5.0 | 10.0 | 0.00 | 0.00 | 0.00 | 52 | 1008.7 |
| 20260505011523 | 72 | 187 | 5.0 | 9.0 | 0.00 | 0.00 | 0.00 | 63 | 1008.6 |
| 20260505010100 | 73 | 149 | 4.0 | 12.0 | 0.00 | 0.00 | 0.00 | 51 | 1008.9 |
| 20260505010017 | 73 | 135 | 3.0 | 12.0 | 0.00 | 0.00 | 0.00 | 63 | 1008.8 |
| 20260505004559 | 73 | 182 | 3.0 | 9.0 | 0.00 | 0.00 | 0.00 | 51 | 1008.8 |
| 20260505004521 | 73 | 175 | 3.0 | 8.0 | 0.00 | 0.00 | 0.00 | 62 | 1008.7 |
| 20260505003054 | 74 | 174 | 1.0 | 10.0 | 0.00 | 0.00 | 0.00 | 49 | 1008.8 |
| 20260505003016 | 74 | 189 | 2.0 | 9.0 | 0.00 | 0.00 | 0.00 | 61 | 1008.7 |
| 20260505001600 | 75 | 186 | 5.0 | 12.0 | 0.00 | 0.00 | 0.00 | 47 | 1008.9 |
| 20260505001516 | 75 | 168 | 5.0 | 12.0 | 0.00 | 0.00 | 0.00 | 59 | 1008.8 |
| 20260505000117 | 76 | 185 | 6.0 | 15.0 | 0.00 | 0.00 | 0.00 | 46 | 1008.9 |
| 20260505000021 | 76 | 191 | 5.0 | 15.0 | 0.00 | 0.00 | 0.00 | 57 | 1008.9 |
| 20260504234557 | 77 | 175 | 7.0 | 13.0 | 0.00 | 0.00 | 0.00 | 45 | 1009.0 |
| 20260504234512 | 77 | 146 | 7.0 | 13.0 | 0.00 | 0.00 | 0.00 | 56 | 1008.8 |
| 20260504233057 | 77 | 181 | 7.0 | 16.0 | 0.00 | 0.00 | 0.00 | 44 | 1009.0 |
| 20260504233012 | 77 | 147 | 7.0 | 16.0 | 0.00 | 0.00 | 0.00 | 55 | 1008.9 |
| 20260504231555 | 77 | 182 | 6.0 | 15.0 | 0.00 | 0.00 | 0.00 | 43 | 1009.4 |
| 20260504231511 | 77 | 165 | 7.0 | 13.0 | 0.00 | 0.00 | 0.00 | 55 | 1009.2 |
| 20260504230106 | 77 | 179 | 5.0 | 12.0 | 0.00 | 0.00 | 0.00 | 44 | 1009.6 |
| 20260504230007 | 78 | 171 | 5.0 | 11.0 | 0.00 | 0.00 | 0.00 | 55 | 1009.5 |
| 20260504224554 | 79 | 241 | 4.0 | 12.0 | 0.00 | 0.00 | 0.00 | 43 | 1009.6 |
| 20260504224506 | 79 | 174 | 4.0 | 9.0 | 0.00 | 0.00 | 0.00 | 55 | 1009.4 |
| 20260504223101 | 79 | 122 | 6.0 | 13.0 | 0.00 | 0.00 | 0.00 | 43 | 1009.6 |
| 20260504223008 | 79 | 122 | 6.0 | 12.0 | 0.00 | 0.00 | 0.00 | 55 | 1009.5 |
| 20260504221603 | 79 | 202 | 8.0 | 17.0 | 0.00 | 0.00 | 0.00 | 41 | 1009.9 |
| 20260504221503 | 79 | 193 | 8.0 | 14.0 | 0.00 | 0.00 | 0.00 | 52 | 1009.8 |
| 20260504220100 | 79 | 170 | 4.0 | 10.0 | 0.00 | 0.00 | 0.00 | 41 | 1010.0 |
| 20260504220002 | 79 | 180 | 4.0 | 10.0 | 0.00 | 0.00 | 0.00 | 53 | 1009.9 |
| 20260504214557 | 78 | 170 | 7.0 | 16.0 | 0.00 | 0.00 | 0.00 | 40 | 1010.2 |
| 20260504213121 | 79 | 138 | 7.0 | 13.0 | 0.00 | 0.00 | 0.00 | 52 | 1010.3 |
| 20260504213102 | 79 | 167 | 7.0 | 15.0 | 0.00 | 0.00 | 0.00 | 41 | 1010.4 |
| 20260504211600 | 79 | 167 | 8.0 | 16.0 | 0.00 | 0.00 | 0.00 | 39 | 1010.7 |
| 20260504211556 | 79 | 148 | 8.0 | 15.0 | 0.00 | 0.00 | 0.00 | 50 | 1010.6 |
| 20260504210057 | 81 | 160 | 6.0 | 13.0 | 0.00 | 0.00 | 0.00 | 50 | 1010.9 |
| 20260504204601 | 80 | 186 | 4.0 | 11.0 | 0.00 | 0.00 | 0.00 | 36 | 1011.2 |
| 20260504204553 | 80 | 193 | 4.0 | 10.0 | 0.00 | 0.00 | 0.00 | 48 | 1011.2 |
| 20260504203102 | 80 | 173 | 5.0 | 13.0 | 0.00 | 0.00 | 0.00 | 35 | 1011.4 |
| 20260504203053 | 80 | 175 | 7.0 | 11.0 | 0.00 | 0.00 | 0.00 | 47 | 1011.3 |
| 20260504201601 | 80 | 205 | 7.0 | 15.0 | 0.00 | 0.00 | 0.00 | 34 | 1011.7 |
| 20260504200055 | 79 | 161 | 7.0 | 14.0 | 0.00 | 0.00 | 0.00 | 34 | 1012.0 |
| 20260504200046 | 79 | 158 | 7.0 | 12.0 | 0.00 | 0.00 | 0.00 | 45 | 1011.8 |
| 20260504194556 | 79 | 153 | 5.0 | 14.0 | 0.00 | 0.00 | 0.00 | 34 | 1012.2 |
| 20260504194548 | 79 | 162 | 4.0 | 11.0 | 0.00 | 0.00 | 0.00 | 46 | 1012.1 |
| 20260504193055 | 79 | 174 | 7.0 | 15.0 | 0.00 | 0.00 | 0.00 | 37 | 1012.5 |
| 20260504193039 | 79 | 232 | 7.0 | 15.0 | 0.00 | 0.00 | 0.00 | 48 | 1012.3 |
| 20260504191608 | 79 | 186 | 6.0 | 11.0 | 0.00 | 0.00 | 0.00 | 35 | 1012.6 |
| 20260504191542 | 79 | 192 | 6.0 | 9.0 | 0.00 | 0.00 | 0.00 | 47 | 1012.4 |
| 20260504190116 | 78 | 152 | 4.0 | 13.0 | 0.00 | 0.00 | 0.00 | 36 | 1012.9 |
| 20260504190033 | 78 | 188 | 4.0 | 10.0 | 0.00 | 0.00 | 0.00 | 47 | 1012.7 |
| 20260504184555 | 77 | 183 | 6.0 | 14.0 | 0.00 | 0.00 | 0.00 | 35 | 1013.0 |
| 20260504184534 | 77 | 199 | 6.0 | 13.0 | 0.00 | 0.00 | 0.00 | 46 | 1013.1 |
| 20260504183106 | 77 | 142 | 7.0 | 16.0 | 0.00 | 0.00 | 0.00 | 36 | 1013.1 |
| 20260504183030 | 77 | 160 | 8.0 | 12.0 | 0.00 | 0.00 | 0.00 | 47 | 1013.1 |
| 20260504181600 | 77 | 148 | 7.0 | 14.0 | 0.00 | 0.00 | 0.00 | 38 | 1013.3 |
| 20260504181532 | 77 | 198 | 6.0 | 14.0 | 0.00 | 0.00 | 0.00 | 47 | 1013.6 |
| 20260504180024 | 77 | 155 | 6.0 | 12.0 | 0.00 | 0.00 | 0.00 | 49 | 1013.9 |
| 20260504174558 | 76 | 162 | 8.0 | 14.0 | 0.00 | 0.00 | 0.00 | 36 | 1014.0 |
| 20260504174523 | 76 | 211 | 7.0 | 13.0 | 0.00 | 0.00 | 0.00 | 48 | 1014.1 |
| 20260504173057 | 76 | 204 | 6.0 | 18.0 | 0.00 | 0.00 | 0.00 | 38 | 1014.0 |
| 20260504173021 | 76 | 203 | 6.0 | 17.0 | 0.00 | 0.00 | 0.00 | 50 | 1014.2 |
| 20260504171553 | 75 | 203 | 8.0 | 16.0 | 0.00 | 0.00 | 0.00 | 39 | 1014.3 |
| 20260504171517 | 75 | 187 | 8.0 | 15.0 | 0.00 | 0.00 | 0.00 | 50 | 1014.4 |
| 20260504081558 | 50 | 0 | 0.0 | 0.0 | 0.00 | 0.00 | 0.00 | 54 | 1015.3 |
| 20260504080116 | 51 | 0 | 0.0 | 0.0 | 0.00 | 0.00 | 0.00 | 54 | 1015.4 |
| 20260504050105 | 55 | 0 | 0.0 | 0.0 | 0.00 | 0.00 | 0.00 | 56 | 1017.0 |
| 20260504044601 | 55 | 0 | 0.0 | 1.0 | 0.00 | 0.00 | 0.00 | 58 | 1016.8 |
| 20260504044528 | 55 | 360 | 0.0 | 1.0 | 0.00 | 0.00 | 0.00 | 69 | 1016.9 |
| 20260504043054 | 55 | 0 | 0.0 | 3.0 | 0.00 | 0.00 | 0.00 | 60 | 1016.9 |
| 20260504043029 | 55 | 360 | 0.0 | 1.0 | 0.00 | 0.00 | 0.00 | 71 | 1017.2 |
| 20260504041552 | 56 | 0 | 0.0 | 0.0 | 0.00 | 0.00 | 0.00 | 60 | 1016.7 |
| 20260504041528 | 56 | 360 | 0.0 | 0.0 | 0.00 | 0.00 | 0.00 | 71 | 1016.9 |
| 20260504040056 | 57 | 0 | 0.0 | 0.0 | 0.00 | 0.00 | 0.00 | 59 | 1016.8 |
| 20260504040028 | 57 | 360 | 0.0 | 0.0 | 0.00 | 0.00 | 0.00 | 70 | 1017.0 |
| 20260504034554 | 57 | 0 | 0.0 | 0.0 | 0.00 | 0.00 | 0.00 | 60 | 1016.7 |
| 20260504034533 | 57 | 360 | 0.0 | 0.0 | 0.00 | 0.00 | 0.00 | 71 | 1017.0 |
| 20260504033054 | 58 | 0 | 0.0 | 0.0 | 0.00 | 0.00 | 0.00 | 59 | 1016.6 |
| 20260504033044 | 58 | 360 | 0.0 | 0.0 | 0.00 | 0.00 | 0.00 | 70 | 1016.9 |
| 20260504031554 | 58 | 0 | 0.0 | 0.0 | 0.00 | 0.00 | 0.00 | 59 | 1016.7 |
| 20260504031530 | 58 | 360 | 0.0 | 0.0 | 0.00 | 0.00 | 0.00 | 71 | 1016.9 |
| 20260504030054 | 59 | 0 | 0.0 | 0.0 | 0.00 | 0.00 | 0.00 | 57 | 1016.7 |
| 20260504030025 | 59 | 360 | 0.0 | 0.0 | 0.00 | 0.00 | 0.00 | 69 | 1017.0 |